This is the latest recevied weather packets stored in our database for station/object KC1OEK-13. If no packets are shown the sender has not sent any weather packets the latest 10 day(s).
| Time | Temp. | Humidity | Pressure | Rain* | Wind** | Luminosity | Snow |
|---|---|---|---|---|---|---|---|
| 1778113988 | 15.56° C | 99% | 1008.9 hPa | 0 mm | - | 0 W/m² | - |
| 1778113684 | 15.56° C | 99% | 1008.8 hPa | 0 mm | - | 0 W/m² | - |
| 1778113380 | 15.56° C | 99% | 1008.5 hPa | 0 mm | - | 0 W/m² | - |
| 1778113077 | 15.56° C | 99% | 1008.7 hPa | 0 mm | - | 0 W/m² | - |
| 1778112775 | 15.56° C | 99% | 1008.7 hPa | 0 mm | - | 0 W/m² | - |
| 1778112471 | 15.56° C | 99% | 1008.6 hPa | 0 mm | - | 0 W/m² | - |
| 1778112167 | 15.56° C | 99% | 1008.6 hPa | 0 mm | - | 1 W/m² | - |
| 1778111863 | 15.56° C | 99% | 1008.6 hPa | 0 mm | - | 1 W/m² | - |
| 1778111559 | 15.56° C | 99% | 1008.7 hPa | 0 mm | - | 1 W/m² | - |
| 1778111256 | 15.56° C | 99% | 1008.8 hPa | 0 mm | - | 2 W/m² | - |
| 1778110953 | 15.56° C | 99% | 1008.8 hPa | 0 mm | - | 2 W/m² | - |
| 1778110651 | 15.56° C | 99% | 1008.7 hPa | 0 mm | - | 3 W/m² | - |
| 1778110347 | 15.56° C | 99% | 1008.8 hPa | 0 mm | - | 3 W/m² | - |
| 1778110044 | 15.56° C | 99% | 1008.5 hPa | 0 mm | - | 3 W/m² | - |
| 1778109739 | 15.56° C | 99% | 1008.5 hPa | 0 mm | - | 4 W/m² | - |
| 1778109436 | 15.56° C | 99% | 1008.6 hPa | 0 mm | - | 5 W/m² | - |
| 1778109135 | 15° C | 99% | 1008.4 hPa | 0 mm | - | 7 W/m² | - |
| 1778108831 | 15° C | 99% | 1008.6 hPa | 0 mm | - | 10 W/m² | - |
| 1778108528 | 15° C | 99% | 1008.4 hPa | 0 mm | - | 12 W/m² | - |
| 1778108224 | 15° C | 99% | 1008.4 hPa | 0 mm | - | 14 W/m² | - |
| 1778107921 | 15° C | 99% | 1008.1 hPa | 0 mm | - | 22 W/m² | - |
| 1778107618 | 15° C | 99% | 1008.3 hPa | 0 mm | - | 16 W/m² | - |
| 1778107315 | 15° C | 99% | 1008.2 hPa | 0 mm | - | 17 W/m² | - |
| 1778107011 | 15° C | 99% | 1008.1 hPa | 0 mm | - | 13 W/m² | - |
| 1778106707 | 15° C | 99% | 1008.2 hPa | 0 mm | - | 19 W/m² | - |
* Rain latest hour (hover to see other rain measurements)
** Current wind speed in m/s (hover to see current wind gust speed)